Location: Fort Wayne
(41.1310°N, 85.1290°W)
Time: 11:52:41
(UTC-04:00)

Courier 1B Rocket - All Passes

Search period start: 30 September 2014 00:00
Search period end: 10 October 2014 00:00
Orbit: 921 x 1202 km, 28.2° (Epoch: 29 September)

Date Brightness Start Highest point End Pass type
(mag) Time Alt. Az. Time Alt. Az. Time Alt. Az.
30 Sep - 14:05:59 10° SSW 14:10:07 19° SSE 14:14:19 10° ESE daylight
30 Sep - 15:57:36 10° SW 16:02:37 25° S 16:07:47 10° SE daylight
30 Sep - 17:50:34 10° WSW 17:55:11 21° SSW 17:59:59 10° SSE daylight
01 Oct - 13:06:12 10° SSW 13:09:32 15° SSE 13:12:51 10° SE daylight
01 Oct - 14:57:05 10° SW 15:01:57 24° S 15:06:54 10° ESE daylight
01 Oct - 16:49:41 10° WSW 16:54:30 23° S 16:59:29 10° SE daylight
01 Oct - 18:44:08 10° SW 18:47:00 13° SSW 18:49:56 10° S daylight
02 Oct - 12:07:17 10° S 12:08:57 11° SSE 12:10:37 10° SE daylight
02 Oct - 13:56:42 10° SW 14:01:19 22° S 14:05:57 10° ESE daylight
02 Oct - 15:48:56 10° SW 15:53:50 24° S 15:58:52 10° SE daylight
02 Oct - 17:42:32 10° SW 17:46:21 17° SSW 17:50:16 10° SSE daylight
03 Oct - 12:56:29 10° SSW 13:00:42 19° SSE 13:04:52 10° ESE daylight
03 Oct - 14:48:15 10° SW 14:53:11 25° S 14:58:09 10° SE daylight
03 Oct - 16:41:22 10° WSW 16:45:42 20° SSW 16:50:08 10° SSE daylight
04 Oct - 11:56:33 10° SSW 12:00:05 15° SSE 12:03:34 10° SE daylight
04 Oct - 13:47:40 10° SW 13:52:32 24° S 13:57:23 10° ESE daylight
04 Oct - 15:40:24 10° WSW 15:45:03 22° S 15:49:47 10° SE daylight
04 Oct - 17:35:13 10° SW 17:37:28 12° SSW 17:39:46 10° S daylight
05 Oct - 10:57:13 10° S 10:59:28 12° SSE 11:01:41 10° SE daylight
05 Oct - 12:47:10 10° SW 12:51:53 22° S 12:56:32 10° ESE daylight
05 Oct - 14:39:33 10° WSW 14:44:25 24° S 14:49:17 10° SE daylight
05 Oct - 16:33:22 10° SW 16:36:52 16° SSW 16:40:25 10° SSE daylight
06 Oct - 11:46:49 10° SSW 11:51:15 20° SSE 11:55:35 10° ESE daylight
06 Oct - 13:38:47 10° SW 13:43:46 25° S 13:48:42 10° SE daylight
06 Oct - 15:32:04 10° WSW 15:36:15 19° SSW 15:40:28 10° SSE daylight
07 Oct - 10:46:41 10° SSW 10:50:36 16° SSE 10:54:24 10° SE daylight
07 Oct - 12:38:04 10° SW 12:43:07 24° S 12:48:01 10° SE daylight
07 Oct - 14:30:59 10° WSW 14:35:38 22° S 14:40:15 10° SE daylight
07 Oct - 16:26:15 10° SW 16:28:00 11° SSW 16:29:44 10° S daylight
08 Oct - 09:47:02 10° S 09:49:57 13° SSE 09:52:47 10° SE daylight
08 Oct - 11:37:27 10° SW 11:42:26 23° S 11:47:15 10° ESE daylight
08 Oct - 13:30:02 10° WSW 13:35:00 24° S 13:39:52 10° SE daylight
08 Oct - 15:24:03 10° SW 15:27:25 15° SSW 15:30:46 10° SSE daylight
09 Oct - 10:36:57 10° SSW 10:41:45 21° SSE 10:46:22 10° ESE daylight
09 Oct - 12:29:08 10° SW 12:34:20 25° S 12:39:21 10° SE daylight
09 Oct - 14:22:36 10° WSW 14:26:49 19° SSW 14:30:59 10° SSE daylight
